When you browse on this site, cookies collect data to enhance your experience and personalize the content and advertising you see.
Visit our Privacy Policy to learn more. By continuing to use the site, you agree to this use of cookies and data.
EN

Hourly Weather Zehida

Today, 18 September, Friday

Time Temperature Precipitation Wind Pressure Humidity
00:00 +8°C° 0 mm 1 mps 598 mmHg 91%
01:00 +8°C° 0 mm 1 mps 598 mmHg 91%
02:00 +8°C° 0 mm 1 mps 597 mmHg 91%
03:00 +7°C° 0 mm 1 mps 597 mmHg 90%
04:00 +7°C° 0 mm 1 mps 597 mmHg 88%
05:00 +8°C° 0 mm 1 mps 596 mmHg 87%
06:00 +8°C° 0 mm 1 mps 596 mmHg 85%
07:00 +11°C° 0 mm 1 mps 597 mmHg 78%
08:00 +13°C° 0 mm 1 mps 598 mmHg 71%
09:00 +16°C° 0 mm 2 mps 599 mmHg 62%
10:00 +18°C° 0 mm 2 mps 600 mmHg 58%
11:00 +19°C° 0 mm 2 mps 600 mmHg 54%
12:00 +20°C° 0 mm 2 mps 600 mmHg 50%
13:00 +20°C° 0.1 mm 2 mps 600 mmHg 50%
14:00 +20°C° 0.1 mm 2 mps 599 mmHg 49%
15:00 +19°C° 0 mm 3 mps 599 mmHg 49%
16:00 +17°C° 0 mm 2 mps 598 mmHg 60%
17:00 +15°C° 0 mm 2 mps 597 mmHg 70%
18:00 +13°C° 0 mm 1 mps 596 mmHg 81%
19:00 +12°C° 0 mm 1 mps 596 mmHg 82%
20:00 +11°C° 0 mm 1 mps 596 mmHg 82%
21:00 +11°C° 0 mm 1 mps 596 mmHg 83%
22:00 +10°C° 0 mm 1 mps 595 mmHg 83%
23:00 +10°C° 0 mm 1 mps 595 mmHg 84%

Tomorrow, 19 September, Saturday

Time Temperature Precipitation Wind Pressure Humidity
00:00 +9°C° 0 mm 2 mps 595 mmHg 85%
01:00 +8°C° 0 mm 2 mps 595 mmHg 83%
02:00 +8°C° 0 mm 2 mps 594 mmHg 81%
03:00 +8°C° 0 mm 2 mps 594 mmHg 80%
04:00 +9°C° 0 mm 1 mps 594 mmHg 75%
05:00 +8°C° 0 mm 1 mps 594 mmHg 70%
06:00 +8°C° 0 mm 1 mps 594 mmHg 65%
07:00 +9°C° 0 mm 2 mps 595 mmHg 64%
08:00 +13°C° 0 mm 2 mps 596 mmHg 62%
09:00 +15°C° 0 mm 2 mps 597 mmHg 60%
10:00 +14°C° 0 mm 3 mps 598 mmHg 60%
11:00 +16°C° 0 mm 3 mps 598 mmHg 61%
12:00 +16°C° 0 mm 3 mps 598 mmHg 62%
13:00 +14°C° 0.1 mm 3 mps 598 mmHg 64%
14:00 +14°C° 0.1 mm 3 mps 597 mmHg 67%
15:00 +14°C° 0.1 mm 2 mps 597 mmHg 70%
16:00 +13°C° 0 mm 2 mps 596 mmHg 74%
17:00 +11°C° 0 mm 1 mps 596 mmHg 78%
18:00 +10°C° 0 mm 1 mps 596 mmHg 82%
19:00 +9°C° 0 mm 1 mps 596 mmHg 82%
20:00 +9°C° 0 mm 1 mps 596 mmHg 82%
21:00 +7°C° 0 mm 2 mps 596 mmHg 82%
22:00 +8°C° 0 mm 1 mps 596 mmHg 82%
23:00 +8°C° 0 mm 1 mps 596 mmHg 82%

Day after tomorrow, 20 September, Sunday

Time Temperature Precipitation Wind Pressure Humidity
00:00 +8°C° 0 mm 1 mps 596 mmHg 82%
01:00 +7°C° 0 mm 1 mps 596 mmHg 84%
02:00 +6°C° 0 mm 1 mps 596 mmHg 85%
03:00 +6°C° 0 mm 1 mps 596 mmHg 86%
04:00 +6°C° 0 mm 1 mps 596 mmHg 88%
05:00 +6°C° 0 mm 1 mps 596 mmHg 90%
06:00 +6°C° 0 mm 1 mps 597 mmHg 91%
07:00 +7°C° 0 mm 1 mps 597 mmHg 87%
08:00 +8°C° 0 mm 2 mps 598 mmHg 84%
09:00 +9°C° 0 mm 2 mps 598 mmHg 80%
10:00 +10°C° 0 mm 2 mps 599 mmHg 73%
11:00 +12°C° 0 mm 2 mps 599 mmHg 66%
12:00 +13°C° 0 mm 3 mps 600 mmHg 60%
13:00 +14°C° 0 mm 2 mps 599 mmHg 60%
14:00 +14°C° 0 mm 2 mps 599 mmHg 60%
15:00 +14°C° 0 mm 2 mps 599 mmHg 59%
16:00 +10°C° 0 mm 2 mps 598 mmHg 69%
17:00 +9°C° 0 mm 1 mps 597 mmHg 78%
18:00 +6°C° 0 mm 0 mps 596 mmHg 88%
19:00 +6°C° 0 mm 0 mps 597 mmHg 88%
20:00 +6°C° 0 mm 1 mps 597 mmHg 88%
21:00 +6°C° 0 mm 1 mps 597 mmHg 87%
22:00 +6°C° 0 mm 1 mps 597 mmHg 88%
23:00 +6°C° 0 mm 1 mps 597 mmHg 88%

21 September, Monday

Time Temperature Precipitation Wind Pressure Humidity
00:00 +5°C° 0 mm 0 mps 597 mmHg 89%
01:00 +5°C° 0 mm 0 mps 597 mmHg 89%
02:00 +5°C° 0 mm 0 mps 598 mmHg 89%
03:00 +6°C° 0 mm 0 mps 598 mmHg 89%
04:00 +6°C° 0 mm 1 mps 598 mmHg 89%
05:00 +5°C° 0 mm 1 mps 597 mmHg 89%
06:00 +5°C° 0 mm 1 mps 597 mmHg 89%
07:00 +7°C° 0 mm 1 mps 598 mmHg 83%
08:00 +8°C° 0 mm 2 mps 600 mmHg 77%
09:00 +10°C° 0 mm 2 mps 601 mmHg 71%
10:00 +12°C° 0 mm 2 mps 601 mmHg 71%
11:00 +12°C° 0 mm 2 mps 601 mmHg 71%
12:00 +13°C° 0 mm 2 mps 601 mmHg 72%
13:00 +12°C° 0.1 mm 2 mps 601 mmHg 74%
14:00 +12°C° 0.1 mm 2 mps 601 mmHg 76%
15:00 +12°C° 0.1 mm 2 mps 600 mmHg 78%
16:00 +10°C° 0 mm 2 mps 600 mmHg 83%
17:00 +10°C° 0 mm 1 mps 599 mmHg 88%
18:00 +9°C° 0 mm 1 mps 599 mmHg 93%
19:00 +8°C° 0 mm 1 mps 599 mmHg 94%
20:00 +8°C° 0 mm 1 mps 599 mmHg 94%
21:00 +8°C° 0 mm 1 mps 599 mmHg 95%
22:00 +8°C° 0 mm 1 mps 599 mmHg 94%
23:00 +8°C° 0 mm 1 mps 598 mmHg 94%

22 September, Tuesday

Time Temperature Precipitation Wind Pressure Humidity
00:00 +8°C° 0 mm 1 mps 598 mmHg 93%
01:00 +8°C° 0 mm 1 mps 598 mmHg 93%
02:00 +6°C° 0 mm 0 mps 597 mmHg 93%
03:00 +6°C° 0 mm 0 mps 597 mmHg 93%
04:00 +6°C° 0 mm 0 mps 597 mmHg 93%
05:00 +7°C° 0 mm 1 mps 597 mmHg 92%
06:00 +7°C° 0 mm 1 mps 597 mmHg 91%
07:00 +9°C° 0 mm 1 mps 598 mmHg 83%
08:00 +11°C° 0 mm 1 mps 599 mmHg 76%
09:00 +14°C° 0 mm 1 mps 600 mmHg 68%
10:00 +15°C° 0.2 mm 1 mps 601 mmHg 67%
11:00 +15°C° 0.2 mm 2 mps 601 mmHg 66%
12:00 +16°C° 0.2 mm 2 mps 601 mmHg 64%
13:00 +16°C° 0.5 mm 2 mps 601 mmHg 65%
14:00 +16°C° 0.5 mm 1 mps 601 mmHg 67%
15:00 +16°C° 0.5 mm 1 mps 601 mmHg 68%
16:00 +14°C° 0.3 mm 1 mps 600 mmHg 75%
17:00 +12°C° 0.3 mm 1 mps 599 mmHg 83%
18:00 +10°C° 0.3 mm 1 mps 598 mmHg 90%
19:00 +10°C° 0 mm 1 mps 599 mmHg 90%
20:00 +10°C° 0 mm 1 mps 599 mmHg 91%
21:00 +8°C° 0 mm 0 mps 599 mmHg 92%
22:00 +10°C° 0 mm 1 mps 600 mmHg 91%
23:00 +10°C° 0 mm 1 mps 600 mmHg 91%

23 September, Wednesday

Time Temperature Precipitation Wind Pressure Humidity
00:00 +10°C° 0 mm 1 mps 600 mmHg 91%
01:00 +10°C° 0 mm 1 mps 600 mmHg 91%
02:00 +10°C° 0 mm 1 mps 599 mmHg 92%
03:00 +10°C° 0 mm 1 mps 599 mmHg 93%
04:00 +9°C° 0 mm 1 mps 599 mmHg 94%
05:00 +9°C° 0 mm 1 mps 599 mmHg 95%
06:00 +8°C° 0 mm 1 mps 599 mmHg 96%
07:00 +9°C° 0.1 mm 1 mps 599 mmHg 95%
08:00 +10°C° 0.1 mm 1 mps 600 mmHg 93%
09:00 +11°C° 0.1 mm 1 mps 600 mmHg 91%
10:00 +11°C° 0 mm 1 mps 600 mmHg 89%
11:00 +12°C° 0 mm 2 mps 600 mmHg 86%
12:00 +13°C° 0 mm 2 mps 600 mmHg 84%
13:00 +13°C° 0 mm 2 mps 600 mmHg 81%
14:00 +13°C° 0 mm 2 mps 600 mmHg 79%
15:00 +14°C° 0 mm 2 mps 600 mmHg 77%
16:00 +12°C° 0 mm 2 mps 600 mmHg 82%
17:00 +11°C° 0 mm 1 mps 599 mmHg 87%
18:00 +10°C° 0 mm 1 mps 599 mmHg 92%
19:00 +10°C° 0 mm 1 mps 599 mmHg 92%
20:00 +10°C° 0 mm 1 mps 599 mmHg 91%
21:00 +10°C° 0 mm 1 mps 599 mmHg 91%
22:00 +9°C° 0 mm 2 mps 599 mmHg 91%
23:00 +9°C° 0 mm 2 mps 599 mmHg 92%
Show more